Regional Weather Roundup
Issued by NWS

Home | Current Version | Previous Version | Text Only | Print | Product List | Glossary On
Versions: 1 2 3 4 5 6 7 8 9 10 11 12 13 14 15 16 17 18 19 20 21 22 23 24 25 26 27 28 29 30 31 32 33 34 35 36 37 38 39 40 41 42 43 44 45 46 47 48 49 50
000
ASUS44 KLIX 300311
RWRLA
LOUISIANA WEATHER ROUNDUP
NATIONAL WEATHER SERVICE NEW ORLEANS LA
1000 PM CDT THU SEP 29 2016

NOTE: "FAIR" INDICATES FEW OR NO CLOUDS BELOW 12,000 FEET WITH NO
      SIGNIFICANT WEATHER AND/OR OBSTRUCTIONS TO VISIBILITY.
      SKY/WX - SKY CONDITION AND SIGNIFICANT WEATHER.
      TMP - AIR TEMPERATURE.    DP   - DEWPOINT TEMPERATURE.
      RH  - RELATIVE HUMIDITY.  PRES - PRESSURE.
      HX  - HEAT INDEX.         WCI  - WIND CHILL INDEX.

*  THESE STATIONS ARE NOT NWS OR FAA STATIONS AND ARE NOT UNDER
   NWS QUALITY CONTROL.

LAZ040-048-061>063-065-066-069-300400-
SOUTHEAST LOUISIANA

CITY           SKY/WX    TMP DP  RH WIND       PRES   REMARKS
N.O. AUDUBON     N/A     24  13  62 MISG        N/A
N.O. INTL ARPT CLEAR     76  53  44 N15       30.11R
N.O. LAKEFRONT CLEAR     76  55  48 N21       30.11R
N.O. DOWNTOWN*   N/A     76  52  43 N9G17     30.11R
RESERVE*       FAIR      69  56  62 N7        30.12R
SLIDELL        CLEAR     65  56  72 N3        30.10R
BATON ROUGE    CLEAR     65  53  65 N5        30.14R
BOOTHVILLE     PTCLDY    79  63  57 N8G22     30.08R
BELLE CHASSE   PTCLDY    72  55  55 NE6       30.10
BOGALUSA*      FAIR      62  53  73 N3        30.13S
GALLIANO*      CLOUDY    74  56  53 N9        30.09R
NEW ROADS*     FAIR      61  55  78 MISG      30.15R
GONZALES*      FAIR      65  56  71 N5        30.12R
HAMMOND*       CLEAR     61  54  77 N5        30.13R
HOUMA*         PTCLDY    70  60  69 N9        30.11R
PORT FOURCHON* MOCLDY    79  63  57 N14       30.08R

$$

LAZ041-044-053-054-300400-
SOUTHWEST LOUISIANA

CITY           SKY/WX    TMP DP  RH WIND       PRES   REMARKS
LAKE CHARLES   CLEAR     69  54  58 N9        30.15R
LAFAYETTE      CLEAR     66  55  67 N5        30.15R
PATTERSON      CLEAR     68  56  65 N6        30.13R
SALT POINT     NOT AVBL
NEW IBERIA     CLEAR     64  53  67 N7        30.14R
CHENAULT AIRPK CLEAR     66  57  72 CALM      30.14S

$$

LAZ027-028-300400-
CENTRAL LOUISIANA

CITY           SKY/WX    TMP DP  RH WIND       PRES   REMARKS
FORT POLK      CLEAR     64  53  66 VRB6      30.17R
ALEXANDRIA INT CLEAR     61  53  75 NW6       30.15R
ALEXANDRIA     CLEAR     58  55  90 CALM      30.17R

$$

LAZ001-002-300400-
NORTHWEST LOUISIANA

CITY           SKY/WX    TMP DP  RH WIND       PRES   REMARKS
SHREVEPORT     PTCLDY    64  54  69 CALM      30.19R
BARKSDALE AFB  CLEAR     62  52  71 N3        30.19R
DTN SHREVEPORT CLEAR     64  55  72 CALM      30.19R

$$

LAZ014-016-300400-
NORTHEAST LOUISIANA

CITY           SKY/WX    TMP DP  RH WIND       PRES   REMARKS
MONROE         CLEAR     63  54  72 CALM      30.18R
TALLULAH       CLEAR     59  51  75 NW5       30.16R

$$




USA.gov is the U.S. government's official web portal to all federal, state and local government web resources and services.